[[{"header":{"parameterUnit":"m.s-1","parameterCategory":1,"la1":30.2991,"la2":30.254,"lo1":-89.0895,"lo2":-89.0444,"dy":0.0017,"dx":0.0017,"nx":28,"ny":28,"refTime":"2025-01-24T09:00:00:Z","depth":0,"parameterNumber":2,"parameterNumberName":"U-component_of_WINDS"},"data":[0,0,0,0,0,0,0,0,0,0,0,0,0,0,0,0,0,0,0,0,0,0,0,0,0,0,0,0,0,0,0,0,0,0,0,0,0,0,0,0,0,0,0,0,0,0,0,0,0,0,0,0,0,0,0,0,0,0,-4.7199,-4.72,0,-4.7247,-4.7247,-4.7248,-4.7114,-4.711,-4.7106,-4.7102,-4.7156,-4.7161,-4.7166,0,0,0,0,0,0,0,0,0,0,0,0,0,-4.6999,-4.7003,-4.7199,-4.72,-4.72,-4.7247,-4.7247,-4.7248,-4.7115,-4.711,-4.7105,-4.71,-4.7154,-4.716,-4.7167,0,0,0,0,0,0,0,0,0,0,0,0,0,-4.707,-4.7004,-4.7199,-4.714,-4.7135,-4.7246,-4.7247,-4.7248,-4.7116,-4.711,-4.7104,-4.7098,-4.7152,-4.716,-4.7168,-4.7341,0,0,-4.7192,-4.7195,0,0,0,0,0,0,0,0,-4.7066,-4.7078,-4.7148,-4.7144,-4.7139,-4.7168,-4.7196,-4.7279,-4.7118,-4.7123,-4.7102,-4.7095,-4.7165,-4.7172,-4.7194,-4.7343,-4.7345,-4.7192,-4.7197,-4.7201,-4.7203,0,0,0,0,0,0,0,-4.7062,-4.7075,-4.7218,-4.7149,-4.7143,-4.7112,-4.7116,-4.7211,-4.7179,-4.7122,-4.7113,-4.712,-4.7162,-4.7187,-4.7195,-4.7346,-4.7192,-4.7199,-4.7204,-4.7207,-4.7641,-4.7648,0,0,0,0,0,0,-4.7064,-4.7072,-4.7216,-4.7219,-4.7086,-4.7121,-4.7125,-4.7165,-4.7177,-4.7173,-4.7125,-4.7114,-4.7177,-4.7186,-4.7196,-4.74,-4.7201,-4.7208,-4.7213,-4.7634,-4.7643,-4.765,0,0,0,0,0,0,-4.706,-4.7078,-4.7215,-4.7143,-4.7158,-4.7131,-4.7178,-4.7169,-4.7194,-4.7179,-4.7173,-4.7157,-4.7172,-4.7185,-4.7306,-4.74,-4.7212,-4.7219,-4.7626,-4.7637,-4.7646,-4.781,0,0,0,0,0,0,-4.7055,-4.7077,-4.7141,-4.7145,-4.7162,-4.7322,-4.7183,-4.7175,-4.7208,-4.7193,-4.7207,-4.7204,-4.7168,-4.7295,-4.7314,-4.7408,-4.7225,-4.7618,-4.7631,-4.7643,-4.7796,-4.7825,-4.7849,0,0,0,0,0,-4.7048,-4.7186,-4.7145,-4.7163,-4.7242,-4.7328,-4.7338,-4.7292,-4.7216,-4.7281,-4.7272,-4.7204,-4.7387,-4.7308,-4.7328,-4.7426,-4.7612,-4.7627,-4.7642,-4.7784,-4.7819,-4.7848,0,0,0,0,0,0,-4.7195,-4.7185,-4.714,-4.7283,-4.7307,-4.7305,-4.7386,-4.733,-4.7378,-4.7362,-4.7305,-4.731,-4.7442,-4.7446,-4.7358,-4.7595,-4.7486,-4.7507,-4.7588,-4.762,-4.7646,-4.7643,-4.7232,0,0,0,0,0,-4.7244,-4.7313,-4.7302,-4.7429,-4.7444,-4.7413,-4.7449,-4.7412,-4.7435,-4.7445,-4.7444,-4.7471,-4.7534,-4.7578,-4.7635,-4.7796,-4.7798,-4.7874,-4.79,-4.7922,-4.794,-4.8027,-4.8061,-4.77,-4.77,-4.77,0,0,-4.7346,-4.7349,-4.7397,-4.7459,-4.7473,-4.7548,-4.7423,-4.7507,-4.7562,-4.7458,-4.7572,-4.7573,-4.7599,-4.7741,-4.7804,-4.7749,-4.804,-4.7941,-4.7959,-4.7965,-4.8046,-4.8081,-4.8111,-4.771,-4.7708,-4.7707,0,0,-4.757,-4.7579,-4.7687,-4.7704,-4.7727,-4.7706,-4.7732,-4.7739,-4.7735,-4.7848,-4.7772,-4.7838,-4.7949,-4.7971,-4.7996,-4.8231,-4.8171,-4.8252,-4.839,-4.8476,-4.8504,-4.8529,-4.8614,-4.8645,-4.827,-4.8271,-4.8271,0,-4.7695,-4.7802,-4.775,-4.784,-4.787,-4.7779,-4.7889,-4.7908,-4.795,-4.7974,-4.7911,-4.8049,-4.806,-4.8206,-4.8264,-4.8287,-4.8317,-4.825,-4.8504,-4.8528,-4.8551,-4.8631,-4.8664,-4.828,-4.8279,-4.8278,-4.8277,0,-4.7955,-4.8032,-4.8116,-4.8157,-4.8197,-4.8297,-4.8261,-4.8309,-4.8269,-4.8256,-4.8373,-4.8383,-4.8442,-4.8474,-4.8436,-4.8616,-4.8582,-4.8513,-4.8402,-4.8596,-4.8671,-4.8701,-4.8294,-4.8291,-4.8288,-4.8285,0,0,-4.8272,-4.8284,-4.8316,-4.8334,-4.8353,-4.8412,-4.8509,-4.8565,-4.8607,-4.864,-4.872,-4.8817,-4.8753,-4.8783,-4.8747,-4.8822,-4.9009,-4.8744,-4.8744,-4.8794,-4.921,-4.9262,-4.9299,-4.8969,-4.8975,-4.898,-4.9208,0,-4.8494,-4.8657,-4.8614,-4.8778,-4.8849,-4.8764,-4.8848,-4.8871,-4.8861,-4.8921,-4.8911,-4.8981,-4.8891,-4.8908,-4.8979,-4.8972,-4.9092,-4.8955,-4.9046,-4.905,-4.9042,-4.9337,-4.9392,-4.9607,-4.9237,-4.9242,-4.9245,0,-4.8774,-4.8816,-4.8987,-4.8996,-4.9024,-4.91,-4.9149,-4.9207,-4.9232,-4.922,-4.9254,-4.9203,-4.9301,-4.919,-4.9324,-4.9231,-4.9266,-4.9269,-4.9276,-4.9283,-4.9159,-4.9353,-4.9675,-4.9708,-4.9291,-4.9287,-4.9284,0,-4.899,-4.9089,-4.9204,-4.9223,-4.9236,-4.9292,-4.93,-4.9318,-4.9355,-4.9399,-4.9423,-4.9478,-4.9508,-4.9553,-4.952,-4.9442,-4.9661,-4.9546,-4.9655,-4.9656,-4.9705,-4.9702,-5.0037,-4.9727,-4.9727,-4.9726,-4.9725,0,-4.9242,-4.935,-4.9301,-4.9373,-4.9492,-4.9442,-4.9562,-4.9561,-4.9578,-4.9649,-4.958,-4.9648,-4.96,-4.9665,-4.964,-4.9756,-4.977,-4.9765,-4.9757,-4.9771,-4.9772,-4.9794,-4.9778,-4.9734,-4.9733,-4.9731,-4.9729,0,-4.9502,-4.9474,-4.9594,-4.9597,-4.96,-4.9689,-4.9691,-4.9759,-4.9744,-4.9835,-4.9854,-4.9832,-4.9905,-4.9876,-4.9954,-4.9938,-5.0087,-5.0059,-5.0078,-5.0071,-5.0182,-5.0172,-5.0543,-5.0589,-5.0249,-5.0252,-5.0255,0,-4.9665,-4.9746,-4.9758,-4.9799,-4.9812,-4.9881,-4.9918,-4.9873,-4.9916,-4.995,-5.0014,-5.0081,-5.0132,-5.0253,-5.0246,-5.0306,-5.0279,-5.0405,-5.0288,-5.03,-5.0282,-5.0278,-5.0287,-5.0429,-5.0433,-5.0436,-5.0438,0,-4.9958,-4.994,-4.9995,-5.0048,-5.0094,-5.0133,-5.0166,-5.0205,-5.0162,-5.0214,-5.0287,-5.0327,-5.0406,-5.0474,-5.0528,-5.0538,-5.0483,-5.0476,-5.0504,-5.052,-5.0528,-5.0526,-5.0143,-5.0467,-5.0464,-5.0462,-5.0461,-5.0459,-5.0174,-5.0243,-5.0262,-5.0327,-5.0348,-5.0381,-5.0444,-5.0438,-5.0498,-5.0558,-5.0528,-5.0614,-5.0638,-5.0705,-5.0723,-5.0791,-5.0742,-5.0783,-5.0794,-5.0805,-5.082,-5.0517,-5.0801,-5.08,-5.0799,-5.0798,-5.0798,0,-5.0464,-5.0472,-5.0533,-5.0581,-5.0633,-5.0575,-5.0609,-5.0657,-5.0733,-5.0759,-5.0811,-5.0897,-5.0963,-5.0961,-5.1023,-5.1078,-5.1054,-5.1096,-5.1091,-5.1095,-5.0859,-5.0829,-5.1114,-5.1114,-5.1114,-5.1114,-5.1114,-5.1114,-5.0621,-5.0734,-5.0719,-5.0843,-5.0851,-5.0933,-5.0958,-5.0989,-5.101,-5.1108,-5.1163,-5.116,-5.1177,-5.1239,-5.1298,-5.1296,-5.1322,-5.1374,-5.1363,-5.1143,-5.1111,-5.1081,-5.1053,-5.138,-5.1381,-5.1593,-5.1595,-5.1597]},{"header":{"parameterUnit":"m.s-1","parameterCategory":1,"la1":30.2991,"la2":30.254,"lo1":-89.0895,"lo2":-89.0444,"dy":0.0017,"dx":0.0017,"nx":28,"ny":28,"refTime":"2025-01-24T09:00:00:Z","depth":0,"parameterNumber":3,"parameterNumberName":"V-component_of_WINDS"},"data":[0,0,0,0,0,0,0,0,0,0,0,0,0,0,0,0,0,0,0,0,0,0,0,0,0,0,0,0,0,0,0,0,0,0,0,0,0,0,0,0,0,0,0,0,0,0,0,0,0,0,0,0,0,0,0,0,0,0,0.9645,0.9644,0,0.9618,0.9618,0.9618,0.9648,0.9649,0.9651,0.9652,0.9619,0.9617,0.9615,0,0,0,0,0,0,0,0,0,0,0,0,0,0.9717,0.9716,0.9645,0.9644,0.9644,0.9618,0.9618,0.9617,0.9648,0.965,0.9651,0.9652,0.9619,0.9617,0.9615,0,0,0,0,0,0,0,0,0,0,0,0,0,0.9688,0.9715,0.9645,0.9656,0.9657,0.9618,0.9618,0.9617,0.9648,0.965,0.9651,0.9653,0.962,0.9617,0.9614,0.9561,0,0,0.9605,0.9604,0,0,0,0,0,0,0,0,0.9689,0.9685,0.9655,0.9656,0.9656,0.9639,0.9631,0.9598,0.9647,0.9651,0.9652,0.9654,0.9623,0.962,0.9611,0.9559,0.9558,0.9605,0.9603,0.9602,0.9601,0,0,0,0,0,0,0,0.9691,0.9686,0.9634,0.9655,0.9655,0.9661,0.9659,0.9625,0.9627,0.9651,0.9653,0.965,0.9624,0.9614,0.9611,0.9557,0.9605,0.9602,0.9601,0.9599,0.946,0.9458,0,0,0,0,0,0,0.9693,0.9688,0.9635,0.9633,0.9678,0.9659,0.9656,0.9642,0.9628,0.9628,0.9648,0.9651,0.9618,0.9614,0.961,0.9546,0.9602,0.9599,0.9597,0.9462,0.946,0.9458,0,0,0,0,0,0,0.9694,0.9688,0.9636,0.9661,0.9655,0.9656,0.964,0.9641,0.9631,0.9626,0.9626,0.9638,0.9619,0.9614,0.9573,0.9545,0.9598,0.9595,0.9464,0.9461,0.9459,0.9419,0,0,0,0,0,0,0.9696,0.9688,0.9669,0.9661,0.9654,0.9601,0.9638,0.9639,0.9626,0.963,0.9617,0.9616,0.962,0.9577,0.957,0.9542,0.9593,0.9467,0.9463,0.946,0.9423,0.9415,0.9408,0,0,0,0,0,0.9699,0.9657,0.9668,0.9661,0.963,0.96,0.9596,0.9603,0.9624,0.9604,0.9601,0.9616,0.955,0.9573,0.9565,0.9536,0.9469,0.9464,0.946,0.9426,0.9416,0.9408,0,0,0,0,0,0,0.966,0.9656,0.9668,0.9623,0.9612,0.9605,0.958,0.9593,0.9574,0.9578,0.9587,0.9583,0.954,0.9534,0.956,0.9484,0.9512,0.9506,0.9489,0.948,0.9473,0.9475,0.959,0,0,0,0,0,0.9647,0.9625,0.9622,0.9582,0.9576,0.9579,0.9566,0.9573,0.9561,0.9556,0.955,0.9536,0.9512,0.9496,0.9473,0.9422,0.9419,0.9398,0.9391,0.9385,0.9379,0.9351,0.9342,0.9443,0.9444,0.9444,0,0,0.9618,0.9614,0.9599,0.9575,0.9567,0.9542,0.9575,0.9547,0.9528,0.9551,0.9513,0.9508,0.9493,0.9447,0.9426,0.944,0.9351,0.938,0.9375,0.9372,0.9346,0.9336,0.9328,0.9441,0.9441,0.9442,0,0,0.9554,0.9548,0.9515,0.9507,0.9495,0.9498,0.949,0.9481,0.948,0.9442,0.9459,0.9436,0.9394,0.9383,0.9372,0.9304,0.9317,0.9296,0.9258,0.9231,0.9223,0.9216,0.9191,0.9182,0.9291,0.929,0.929,0,0.9519,0.9484,0.9496,0.9467,0.9456,0.9478,0.9444,0.9434,0.9415,0.9406,0.9423,0.9372,0.9363,0.9315,0.9298,0.9289,0.9279,0.9297,0.9224,0.9216,0.921,0.9186,0.9177,0.9288,0.9288,0.9289,0.9289,0,0.9442,0.9417,0.9392,0.9375,0.9361,0.9329,0.9335,0.9318,0.9327,0.9327,0.9288,0.9279,0.9255,0.9244,0.9251,0.9196,0.9205,0.9223,0.9252,0.9198,0.9175,0.9166,0.9284,0.9285,0.9286,0.9287,0,0,0.9352,0.9343,0.9333,0.9326,0.9315,0.9295,0.9264,0.9243,0.9229,0.9215,0.9188,0.9153,0.917,0.9157,0.9163,0.9139,0.9085,0.9159,0.9159,0.9145,0.9023,0.901,0.8999,0.9094,0.9093,0.9091,0.9024,0,0.9287,0.9235,0.9245,0.9194,0.9171,0.9192,0.9165,0.9155,0.9154,0.9133,0.9131,0.9107,0.913,0.9123,0.91,0.9097,0.9061,0.9102,0.9068,0.9066,0.907,0.8988,0.8973,0.891,0.9016,0.9014,0.9013,0,0.9204,0.9189,0.9136,0.913,0.912,0.9096,0.9078,0.9058,0.9046,0.9047,0.9034,0.9044,0.9012,0.9043,0.8997,0.9025,0.9012,0.9008,0.9006,0.9002,0.9036,0.898,0.889,0.888,0.9,0.9001,0.9002,0,0.9142,0.9109,0.9074,0.9067,0.9058,0.904,0.9036,0.9026,0.9013,0.8996,0.8987,0.8966,0.8954,0.8937,0.8941,0.8963,0.8894,0.8925,0.8893,0.8893,0.8876,0.8877,0.8782,0.8869,0.8869,0.887,0.887,0,0.9068,0.9035,0.9046,0.9024,0.8987,0.8998,0.8961,0.8958,0.8949,0.8926,0.8942,0.892,0.8927,0.8904,0.8907,0.8869,0.8863,0.8862,0.8863,0.886,0.886,0.8851,0.8855,0.8867,0.8868,0.8868,0.8869,0,0.8993,0.8999,0.8962,0.8957,0.8955,0.8928,0.8924,0.8902,0.8904,0.8874,0.8867,0.8868,0.8842,0.8845,0.8815,0.8817,0.8769,0.8776,0.8774,0.8775,0.8742,0.8745,0.8636,0.8622,0.872,0.8719,0.8718,0,0.8945,0.892,0.8914,0.8901,0.8895,0.8873,0.886,0.887,0.8856,0.8841,0.8821,0.8797,0.8778,0.8735,0.8732,0.8709,0.8715,0.8678,0.8711,0.8709,0.8713,0.8714,0.8711,0.8671,0.867,0.8669,0.8669,0,0.8859,0.8864,0.8846,0.8828,0.8813,0.8799,0.8787,0.8775,0.8783,0.8766,0.8741,0.8727,0.8697,0.8673,0.8651,0.8645,0.8657,0.8659,0.865,0.8646,0.8645,0.8644,0.8755,0.8661,0.8661,0.8662,0.8662,0.8663,0.8795,0.8774,0.8767,0.8746,0.8738,0.8727,0.8707,0.8706,0.8686,0.8664,0.8671,0.8642,0.863,0.8604,0.8595,0.8571,0.8584,0.8571,0.8568,0.8564,0.856,0.865,0.8567,0.8567,0.8568,0.8568,0.8568,0,0.871,0.8706,0.8687,0.8671,0.8654,0.867,0.8657,0.8642,0.8617,0.8606,0.8588,0.8558,0.8535,0.8531,0.8508,0.8489,0.8494,0.8483,0.8484,0.8482,0.855,0.856,0.8479,0.8479,0.8479,0.8479,0.8479,0.8479,0.8663,0.8628,0.8632,0.8593,0.8589,0.8563,0.8554,0.8543,0.8535,0.8502,0.8483,0.8482,0.8473,0.8449,0.8428,0.8427,0.8417,0.8403,0.8404,0.8468,0.8477,0.8485,0.8494,0.8401,0.8401,0.8337,0.8337,0.8336]}]]